Date String (YYYY-MM-DD hh:mm:ss) UTC,Instrument flags,Ambient pressure (hPa),Sample flow (lpm),Bypass flow (lpm),Sample temperature (°C),Ambient temperature (°C),ASC tube jacket temperature (°C),LED temperature (°C),Box temperature (°C),Sample RH (%),Span deviation,Mass concentration (μg/m³),Mass concentration (μg/m³),Mass concentration (μg/m³)
DateTimeUTC,F1_M11,P_M11,Q1_M11,Q2_M11,T1_M11,T2_M11,T3_M11,T4_M11,T5_M11,U1_M11,ZSPAN_M11,X0_M11,X2_M11,X1_M11
2023-01-14 20:00:00,,0816.6,5.00,0.00,25.8,24.6,00.0,34.6,27.7,10.7,0000.0,0000.60,0000.34,0000.28
2023-01-14 20:01:00,,0816.7,4.99,0.00,25.9,24.7,00.0,34.6,27.7,10.6,0000.0,0000.63,0000.36,0000.28
2023-01-14 20:02:00,,0816.7,4.99,0.00,25.9,24.7,00.0,34.6,27.7,10.6,0000.0,0000.51,0000.35,0000.28
2023-01-14 20:03:00,,0816.6,4.99,0.00,25.9,24.7,00.0,34.6,27.7,11.0,0000.0,0000.50,0000.35,0000.28
2023-01-14 20:04:00,,0816.6,5.00,0.00,25.9,24.7,00.0,34.6,27.7,10.5,0000.0,0000.48,0000.34,0000.28
2023-01-14 20:05:00,,0816.6,5.01,0.00,25.9,24.7,00.0,34.7,27.7,10.9,0000.0,0000.47,0000.33,0000.27
2023-01-14 20:06:00,,0816.6,5.00,0.00,25.9,24.7,00.0,34.7,27.7,11.6,0000.0,0000.40,0000.31,0000.27
2023-01-14 20:07:00,,0816.6,5.00,0.00,25.9,24.8,00.0,34.7,27.8,10.5,0000.0,0000.39,0000.30,0000.27
2023-01-14 20:08:00,,0816.6,5.00,0.00,26.0,24.8,00.0,34.7,27.8,10.8,0000.0,0000.39,0000.30,0000.27
2023-01-14 20:09:00,,0816.7,5.00,0.00,26.0,24.8,00.0,34.7,27.8,11.2,0000.0,0000.37,0000.30,0000.27
2023-01-14 20:10:00,,0816.5,5.01,0.00,26.0,24.8,00.0,34.7,27.8,11.0,0000.0,0000.39,0000.31,0000.27
2023-01-14 20:11:00,,0816.5,5.00,0.00,26.0,24.8,00.0,34.7,27.8,10.7,0000.0,0000.39,0000.31,0000.27
2023-01-14 20:12:00,,0816.5,5.01,0.00,26.0,24.8,00.0,34.7,27.9,10.2,0000.0,0000.36,0000.29,0000.27
2023-01-14 20:13:00,,0816.5,5.00,0.00,26.0,24.8,00.0,34.7,27.9,10.9,0000.0,0000.38,0000.30,0000.27
2023-01-14 20:14:00,,0816.5,5.00,0.00,26.0,24.8,00.0,34.8,27.9,10.5,0000.0,0000.39,0000.30,0000.27
2023-01-14 20:15:00,,0816.5,5.00,0.00,26.0,24.9,00.0,34.8,27.9,10.7,0000.0,0000.48,0000.33,0000.27
2023-01-14 20:16:00,,0816.5,4.99,0.00,26.0,24.9,00.0,34.8,27.9,10.6,0000.0,0000.49,0000.34,0000.28
2023-01-14 20:17:00,,0816.5,5.00,0.00,26.1,24.9,00.0,34.8,27.9,10.6,0000.0,0000.49,0000.34,0000.28
2023-01-14 20:18:00,,0816.5,5.00,0.00,26.1,24.9,00.0,34.8,27.9,10.7,0000.0,0000.49,0000.34,0000.28
2023-01-14 20:19:00,,0816.4,5.00,0.00,26.1,24.9,00.0,34.8,27.9,10.5,0000.0,0000.49,0000.34,0000.28
2023-01-14 20:20:00,,0816.4,5.01,0.00,26.1,24.9,00.0,34.8,28.0,10.5,0000.0,0000.54,0000.36,0000.28
2023-01-14 20:21:00,,0816.5,5.00,0.00,26.1,24.9,00.0,34.9,28.0,10.2,0000.0,0000.51,0000.35,0000.28
2023-01-14 20:22:00,,0816.6,5.00,0.00,26.1,25.0,00.0,34.9,28.0,10.3,0000.0,0000.50,0000.35,0000.28
2023-01-14 20:23:00,,0816.6,4.99,0.00,26.2,25.0,00.0,34.9,28.0,10.2,0000.0,0000.50,0000.35,0000.28
2023-01-14 20:24:00,,0816.5,4.99,0.00,26.2,25.0,00.0,34.9,28.0,10.2,0000.0,0000.47,0000.33,0000.29
2023-01-14 20:25:00,,0816.5,5.01,0.00,26.2,25.0,00.0,34.9,28.0,10.3,0000.0,0000.46,0000.32,0000.28
2023-01-14 20:26:00,,0816.5,5.00,0.00,26.2,25.0,00.0,34.9,28.0,10.7,0000.0,0000.40,0000.31,0000.29
2023-01-14 20:27:00,,0816.5,5.00,0.00,26.2,25.1,00.0,34.9,28.0,10.5,0000.0,0000.41,0000.31,0000.29
2023-01-14 20:28:00,,0816.5,5.00,0.00,26.2,25.1,00.0,34.9,28.0,09.9,0000.0,0000.49,0000.34,0000.30
2023-01-14 20:29:00,,0816.5,5.00,0.00,26.2,25.1,00.0,35.0,28.1,09.8,0000.0,0000.50,0000.35,0000.30
2023-01-14 20:30:00,,0816.5,5.00,0.00,26.3,25.1,00.0,35.0,28.1,10.1,0000.0,0000.50,0000.35,0000.30
2023-01-14 20:31:00,,0816.4,4.99,0.00,26.3,25.1,00.0,35.0,28.1,09.8,0000.0,0000.45,0000.33,0000.30
2023-01-14 20:32:00,,0816.4,5.01,0.00,26.3,25.1,00.0,35.0,28.1,09.8,0000.0,0000.44,0000.33,0000.29
2023-01-14 20:33:00,,0816.4,5.01,0.00,26.3,25.1,00.0,35.0,28.1,09.6,0000.0,0000.44,0000.32,0000.29
2023-01-14 20:34:00,,0816.5,5.00,0.00,26.3,25.1,00.0,35.0,28.1,09.7,0000.0,0000.44,0000.33,0000.29
2023-01-14 20:35:00,,0816.4,5.01,0.00,26.3,25.1,00.0,35.0,28.1,09.5,0000.0,0000.47,0000.34,0000.29
2023-01-14 20:36:00,,0816.4,5.00,0.00,26.3,25.1,00.0,35.1,28.2,09.7,0000.0,0000.49,0000.34,0000.29
2023-01-14 20:37:00,,0816.4,5.00,0.00,26.3,25.2,00.0,35.1,28.1,10.0,0000.0,0000.49,0000.34,0000.29
2023-01-14 20:38:00,,0816.4,5.00,0.00,26.4,25.2,00.0,35.1,28.1,10.0,0000.0,0000.47,0000.33,0000.29
2023-01-14 20:39:00,,0816.4,4.99,0.00,26.4,25.2,00.0,35.1,28.1,10.0,0000.0,0000.40,0000.31,0000.28
2023-01-14 20:40:00,,0816.4,5.00,0.00,26.4,25.2,00.0,35.1,28.2,09.9,0000.0,0000.39,0000.30,0000.28
2023-01-14 20:41:00,,0816.4,5.00,0.00,26.4,25.2,00.0,35.1,28.2,09.6,0000.0,0000.39,0000.30,0000.28
2023-01-14 20:42:00,,0816.4,5.00,0.00,26.4,25.2,00.0,35.1,28.2,09.5,0000.0,0000.39,0000.31,0000.28
2023-01-14 20:43:00,,0816.4,5.00,0.00,26.4,25.2,00.0,35.1,28.2,09.6,0000.0,0000.40,0000.31,0000.29
2023-01-14 20:44:00,,0816.4,5.01,0.00,26.4,25.2,00.0,35.2,28.2,09.8,0000.0,0000.42,0000.32,0000.29
2023-01-14 20:45:00,,0816.3,5.00,0.00,26.4,25.2,00.0,35.2,28.2,10.0,0000.0,0000.46,0000.33,0000.29
2023-01-14 20:46:00,,0816.3,5.00,0.00,26.4,25.2,00.0,35.2,28.2,09.8,0000.0,0000.47,0000.34,0000.29
2023-01-14 20:47:00,,0816.3,4.99,0.00,26.5,25.2,00.0,35.2,28.3,09.9,0000.0,0000.45,0000.33,0000.29
2023-01-14 20:48:00,,0816.3,5.00,0.00,26.5,25.3,00.0,35.2,28.3,09.8,0000.0,0000.49,0000.34,0000.29
2023-01-14 20:49:00,,0816.2,4.99,0.00,26.5,25.3,00.0,35.2,28.3,09.6,0000.0,0000.53,0000.35,0000.30
2023-01-14 20:50:00,,0816.1,4.99,0.00,26.5,25.3,00.0,35.2,28.2,09.8,0000.0,0000.59,0000.38,0000.30
2023-01-14 20:51:00,,0816.1,5.00,0.00,26.5,25.3,00.0,35.2,28.3,09.5,0000.0,0000.64,0000.40,0000.30
2023-01-14 20:52:00,,0816.1,5.01,0.00,26.5,25.2,00.0,35.2,28.3,09.6,0000.0,0000.65,0000.41,0000.30
2023-01-14 20:53:00,,0816.1,5.00,0.00,26.5,25.2,00.0,35.3,28.3,09.5,0000.0,0000.68,0000.42,0000.31
2023-01-14 20:54:00,,0816.1,5.00,0.00,26.5,25.2,00.0,35.3,28.3,10.0,0000.0,0000.69,0000.42,0000.30
2023-01-14 20:55:00,,0816.0,5.00,0.00,26.5,25.2,00.0,35.3,28.3,10.3,0000.0,0000.66,0000.41,0000.31
2023-01-14 20:56:00,,0816.0,5.00,0.00,26.5,25.3,00.0,35.3,28.3,10.5,0000.0,0000.64,0000.40,0000.31
2023-01-14 20:57:00,,0815.9,4.99,0.00,26.5,25.3,00.0,35.3,28.4,10.1,0000.0,0000.62,0000.40,0000.30
2023-01-14 20:58:00,,0815.9,4.99,0.00,26.5,25.3,00.0,35.3,28.4,09.4,0000.0,0000.62,0000.40,0000.30
2023-01-14 20:59:00,,0815.9,5.00,0.00,26.6,25.3,00.0,35.3,28.3,09.7,0000.0,0000.61,0000.40,0000.30
